Theta_e
314 315 315 316 316 317 317 318 318 319 319 320 321 322 324 327 328 331 336 337 338 338 339 341 348 352 354 355 348 345 359 361 348 347 347 345 346 345 342 344 345 347 352 348 345
313 314 315 315 315 316 317 317 318 319 319 320 321 323 325 326 330 333 339 338 337 339 339 343 353 355 355 351 344 350 355 356 348 347 347 347 346 348 345 345 344 349 349 346 345
312 313 313 314 314 315 316 317 318 318 319 320 320 323 324 324 331 342 340 339 340 338 339 343 355 356 356 351 346 346 349 352 348 346 344 345 347 349 349 350 345 350 348 345 344
312 312 313 313 314 314 315 316 317 318 319 319 320 322 324 323 344 344 342 342 341 339 338 346 353 354 355 356 349 350 347 349 346 348 348 343 346 344 345 347 346 348 347 345 345
313 313 313 313 313 314 314 315 316 317 318 319 320 322 322 333 340 341 344 343 343 340 341 350 351 353 355 354 351 351 348 348 347 349 345 345 343 344 344 346 346 345 345 345 346
313 314 314 314 314 314 314 315 315 317 318 318 319 321 322 334 338 341 346 344 341 339 346 351 352 353 356 353 350 351 349 346 347 346 349 346 345 343 345 345 346 345 344 345 346
314 314 314 314 314 314 314 315 315 316 317 318 319 319 323 330 334 344 342 339 340 343 351 350 352 351 352 349 347 350 352 350 346 346 351 349 349 348 347 349 348 347 345 344 345
314 314 314 315 315 315 315 315 315 316 317 318 319 319 328 334 335 341 342 341 341 345 351 353 351 350 350 350 351 352 353 353 351 349 346 350 354 350 349 352 351 349 347 345 344
313 313 314 314 315 315 315 315 315 316 316 318 319 325 331 333 333 340 343 341 342 346 351 350 350 349 349 351 351 350 357 352 351 350 349 346 350 350 351 353 354 351 349 346 344
313 313 313 313 314 315 316 315 316 316 317 318 320 328 333 334 335 342 343 342 346 348 350 350 349 351 350 351 356 353 351 348 351 352 347 349 351 349 350 353 354 354 351 349 346
313 313 313 313 314 315 316 315 326 325 322 326 330 329 334 334 336 342 343 346 349 350 352 349 352 351 349 349 351 352 352 352 351 346 352 350 352 350 347 347 354 353 355 352 350
313 313 313 313 314 314 316 318 324 325 326 328 329 329 332 336 339 344 344 347 350 350 348 352 352 350 349 349 348 351 353 356 348 345 347 352 347 344 344 343 347 352 353 354 352
313 313 314 313 314 315 317 321 323 323 325 326 328 330 330 333 337 342 346 347 347 348 348 352 351 348 349 351 347 347 349 350 347 344 345 346 344 345 343 343 342 342 350 352 354
312 313 313 314 315 323 322 322 322 324 327 327 327 329 330 332 333 338 342 347 346 348 347 350 349 350 347 353 350 349 347 345 345 346 344 346 351 350 345 343 342 344 343 346 352
312 313 313 313 314 318 324 322 322 325 330 331 330 330 330 332 333 337 340 343 346 346 347 355 349 350 352 351 348 348 347 347 344 344 346 345 349 347 345 342 342 344 345 347 346
312 312 313 314 316 317 321 322 323 328 330 330 329 329 330 331 333 337 339 340 342 344 344 347 347 347 349 348 349 345 345 345 344 343 344 345 347 350 345 342 343 344 346 348 349
312 311 312 312 317 322 321 322 326 328 330 332 330 329 330 332 333 336 339 340 345 346 346 345 348 347 345 348 348 347 346 349 348 346 346 347 345 342 342 342 343 344 346 346 347
312 312 313 314 314 320 320 324 327 329 329 332 332 330 329 332 334 336 340 340 341 344 343 345 349 347 344 345 349 351 348 351 354 353 355 349 350 342 343 342 341 344 347 347 346
311 314 319 315 314 319 321 325 327 329 331 330 332 330 330 331 334 335 339 341 341 342 344 344 347 346 346 344 345 349 352 349 348 353 353 353 350 344 343 343 343 347 346 348 349
311 313 321 323 321 319 323 323 325 328 330 329 329 331 330 331 333 336 339 340 341 342 341 343 349 347 347 344 344 345 345 350 350 355 359 349 348 348 347 345 345 347 347 348 349
314 325 322 323 320 320 323 324 325 325 327 328 328 330 332 332 332 335 337 339 341 342 343 343 347 350 346 350 347 344 344 342 344 346 348 346 346 347 347 348 347 349 347 348 348
320 326 326 324 323 322 323 324 324 326 327 327 327 329 330 331 334 335 337 340 340 342 344 343 345 349 348 344 340 340 340 340 343 344 345 344 341 341 344 347 345 348 347 346 347
322 326 325 325 325 324 324 324 325 325 326 327 326 326 329 330 330 333 335 338 339 341 340 342 346 347 346 345 339 339 339 339 340 339 342 343 341 343 344 345 344 349 350 352 353
322 326 326 324 323 324 325 325 325 325 325 325 325 326 326 329 330 332 334 334 334 338 330 334 335 338 342 345 344 342 339 336 336 338 337 336 338 348 347 345 355 353 354 355 353
323 326 328 331 326 324 325 327 327 326 325 324 324 325 326 327 329 330 333 334 332 330 332 334 335 336 337 339 340 336 337 337 336 335 334 334 335 349 353 346 354 354 358 355 354
321 322 322 324 328 329 324 326 327 327 327 327 327 326 327 327 328 331 331 332 333 333 331 332 336 333 334 334 334 334 334 335 335 335 335 335 335 336 339 339 354 354 355 354 354
318 316 320 322 324 326 328 328 326 327 328 328 329 329 328 328 329 328 329 330 332 333 333 332 333 336 334 333 334 335 335 334 334 334 334 334 335 336 340 351 354 353 353 354 350
Wind_Speed
11 11 12 12 13 13 13 13 13 13 12 12 11 12 12 12 11 13 12 10 10 9 8 6 7 9 8 7 14 9 2 11 8 15 12 17 15 13 16 11 9 13 23 31 31
12 12 13 13 14 13 14 14 13 13 12 12 12 12 13 16 16 18 10 14 13 11 9 7 8 6 9 21 8 7 1 9 12 7 15 8 17 14 15 15 13 27 28 29 30
12 13 13 14 14 14 14 14 14 14 12 12 12 12 14 17 17 4 13 14 11 9 8 11 7 9 12 27 8 10 7 17 11 15 19 12 12 11 13 15 18 24 28 29 29
13 13 14 15 15 15 15 15 14 14 13 13 12 12 16 15 6 2 4 10 10 9 11 14 8 16 18 16 37 8 23 25 15 7 6 15 14 12 17 16 21 24 27 30 28
15 15 15 15 16 16 16 15 15 14 13 13 12 12 14 9 19 3 4 9 10 10 11 13 12 17 16 11 16 11 24 16 15 3 13 9 19 17 17 19 20 24 26 27 26
15 16 16 16 16 16 16 16 15 14 13 13 12 12 13 16 7 8 5 11 11 13 15 10 12 20 11 3 6 20 12 6 16 13 4 19 11 21 18 19 21 23 24 24 24
16 16 16 17 17 17 16 16 15 14 13 12 11 12 13 22 6 7 10 14 12 14 16 11 11 15 19 16 24 18 15 19 12 13 15 14 15 16 20 20 22 21 22 23 23
17 17 17 17 18 17 17 16 15 14 12 11 11 10 12 10 13 12 12 15 14 14 14 7 8 15 18 6 21 6 9 10 15 17 19 5 5 18 19 20 20 22 22 23 24
18 18 17 17 18 17 16 16 14 13 11 10 8 8 20 11 14 14 15 17 14 15 12 11 11 16 21 14 6 6 2 21 17 25 9 15 11 16 20 22 21 20 21 22 23
19 18 17 17 18 17 14 15 13 12 11 10 11 9 24 19 14 15 16 17 16 15 14 14 16 13 13 13 2 5 5 11 14 24 22 2 18 12 20 25 25 24 22 21 23
19 18 17 17 17 16 12 11 8 4 14 18 15 18 13 17 15 16 17 18 17 15 14 18 12 14 13 11 22 5 17 27 23 16 28 33 18 17 15 14 27 26 25 23 23
21 19 17 16 15 14 11 8 10 10 15 22 26 24 20 11 12 17 19 17 17 15 15 11 12 12 6 2 22 29 25 31 18 5 6 17 12 9 10 1 10 24 27 25 23
20 20 18 14 13 11 10 14 12 10 12 23 26 29 23 13 19 20 22 23 15 17 17 16 6 16 13 7 14 23 16 12 4 5 11 7 9 12 12 9 11 3 19 24 25
19 18 17 13 6 7 11 10 8 8 7 18 28 30 30 21 20 22 25 24 20 19 19 14 13 15 10 24 20 4 9 5 7 14 8 6 2 5 16 13 13 17 12 17 24
17 17 14 14 9 8 3 3 6 5 6 5 23 18 30 31 23 23 25 25 22 19 9 24 13 14 17 19 17 3 19 25 14 12 10 14 11 8 12 15 10 11 5 4 1
16 16 14 9 12 12 8 5 6 7 13 7 10 12 21 30 27 22 24 25 27 22 18 21 7 16 16 15 21 10 9 12 9 11 12 18 16 18 16 14 13 11 9 3 1
17 15 17 14 12 4 8 8 6 10 13 10 14 14 19 22 24 24 23 22 20 18 19 20 12 16 7 14 18 10 13 9 11 11 9 12 10 14 16 15 13 10 12 4 3
18 17 16 17 15 10 4 9 11 12 20 14 5 18 20 22 22 23 22 21 24 23 15 17 12 18 13 16 15 14 16 14 11 5 7 23 6 6 20 21 18 15 12 7 8
18 11 14 10 16 12 15 12 12 17 12 10 8 13 16 20 16 24 22 22 24 25 22 18 17 20 25 17 18 16 16 21 21 10 3 9 8 26 16 19 18 21 15 15 10
18 12 19 10 14 14 11 18 20 25 14 7 11 7 14 20 23 23 23 22 24 26 24 24 6 8 7 18 19 17 16 13 12 9 6 14 18 14 17 16 15 15 14 18 16
12 7 12 16 15 17 12 19 21 32 20 5 14 18 17 15 21 22 23 22 24 24 26 24 10 3 6 31 19 13 14 12 15 16 12 11 7 16 11 12 13 16 17 18 17
7 6 13 14 13 16 14 22 27 23 20 11 13 15 14 17 13 21 21 24 24 23 21 21 15 12 14 22 16 17 13 12 12 13 15 14 14 13 19 18 13 21 16 15 16
7 15 10 15 10 13 19 23 24 23 19 10 11 17 15 15 13 14 13 21 17 15 12 18 17 16 16 17 17 19 18 19 23 19 17 14 7 13 13 11 13 23 19 16 18
7 5 13 15 23 20 18 19 21 27 11 14 17 16 19 11 14 9 13 10 5 6 7 1 12 14 15 17 14 19 21 17 17 12 14 14 15 12 13 10 18 20 18 16 16
7 7 18 5 14 17 19 20 16 18 17 19 17 17 14 13 14 16 14 12 9 1 5 6 15 18 19 17 12 15 19 23 17 18 18 16 14 10 9 4 20 20 22 19 17
11 10 20 21 22 14 11 18 20 16 17 15 17 16 18 17 18 16 17 14 13 12 10 12 14 17 20 19 20 21 12 16 10 8 11 12 13 10 16 11 26 23 21 20 16
12 16 12 13 15 11 12 16 17 16 21 14 12 15 17 16 11 20 26 22 15 14 13 14 12 12 15 19 18 15 13 11 16 10 9 11 8 12 11 9 16 17 17 20 18
Wind_Direction
326 327 325 322 323 325 325 327 328 327 327 327 323 318 313 301 290 282 265 248 242 277 273 278 244 256 258 264 84 102 181 237 78 113 119 129 113 83 106 133 111 80 139 148 152
324 324 320 322 321 321 321 321 322 320 322 321 319 317 312 305 299 272 229 250 252 250 251 245 257 227 236 90 55 49 255 274 87 127 106 88 106 147 129 122 108 93 124 144 153
322 322 321 319 318 317 316 316 317 314 316 316 315 315 309 313 314 258 215 234 232 233 231 273 280 273 262 79 261 168 234 281 70 74 115 134 127 178 139 145 135 135 142 153 159
320 319 318 318 316 314 312 311 310 309 310 310 311 311 307 310 299 189 223 220 216 223 245 261 258 268 270 153 217 165 253 266 136 120 339 107 130 80 69 96 132 147 155 160 166
318 319 318 316 312 309 309 307 305 305 304 305 307 307 311 285 261 244 261 226 212 219 242 237 236 238 261 312 183 261 167 216 119 230 120 117 107 104 103 108 126 145 158 166 171
317 317 315 312 308 306 306 304 303 301 299 297 299 301 304 267 282 271 262 229 207 223 244 253 262 288 114 309 92 246 272 172 156 125 173 118 136 111 117 117 129 147 160 170 176
313 312 311 309 307 305 304 301 299 297 293 291 292 295 279 251 272 245 214 217 220 224 245 258 301 301 301 103 259 286 327 2 151 173 164 202 154 118 137 132 139 152 163 172 181
311 312 310 308 307 304 303 299 296 292 286 285 284 286 263 289 230 231 224 220 221 224 257 308 276 270 287 222 220 129 25 339 281 93 14 127 118 129 150 143 154 158 166 174 182
313 312 310 308 305 303 301 296 293 285 279 275 273 265 262 235 236 225 217 216 217 223 237 263 268 257 267 244 201 73 137 266 287 49 299 48 300 142 170 155 165 165 170 177 183
313 312 311 309 306 303 299 294 285 272 266 260 239 267 250 233 226 214 210 213 209 219 239 242 251 242 228 248 86 338 286 249 232 174 147 80 251 187 186 169 166 171 174 183 186
312 314 313 311 306 304 300 296 290 241 214 223 213 212 275 216 208 202 201 211 208 223 234 237 239 236 60 62 124 82 280 263 240 191 144 164 220 176 175 195 166 171 173 187 192
313 313 312 310 303 296 287 255 330 313 296 243 249 245 256 204 194 210 194 209 207 224 223 262 225 48 10 70 149 176 211 243 230 187 233 187 194 151 128 76 152 177 172 186 193
312 313 313 311 303 290 275 249 289 309 281 268 237 229 231 216 222 204 197 210 212 229 224 227 200 47 356 249 205 246 246 328 105 205 242 207 226 172 148 186 160 144 178 178 190
310 311 314 311 296 251 267 284 264 301 280 256 216 225 216 215 231 227 201 211 231 226 232 249 163 107 299 274 257 218 358 82 252 249 205 345 249 278 163 179 205 150 167 188 186
307 306 308 304 279 244 8 285 282 261 276 153 186 199 204 209 216 223 199 216 228 229 176 254 173 202 204 259 252 358 223 230 228 257 149 243 230 168 188 176 133 89 91 19 352
302 299 296 299 271 234 275 284 272 233 239 162 132 196 194 205 220 210 215 210 230 245 223 266 152 230 222 251 269 300 270 279 262 252 261 228 225 173 177 161 114 106 92 79 60
298 288 279 261 224 176 256 241 224 242 232 155 178 193 207 196 211 228 192 202 224 227 243 222 186 233 265 226 247 240 270 255 221 224 235 334 210 113 117 126 119 123 106 105 93
299 283 272 254 227 241 238 222 237 245 247 299 182 182 201 210 205 222 192 211 214 228 230 236 208 225 205 242 257 223 246 265 258 347 7 336 314 174 131 126 143 130 115 86 45
308 297 274 241 206 186 224 221 221 256 312 334 186 250 191 213 208 213 223 205 210 223 231 231 214 223 235 211 235 243 256 255 271 66 42 245 335 349 150 155 155 129 136 117 91
317 291 246 222 207 188 224 237 234 249 281 309 286 228 243 200 213 199 214 218 222 212 230 251 221 333 342 318 203 233 259 283 292 198 171 250 175 204 175 157 148 131 142 128 123
317 259 136 171 174 198 222 234 240 261 285 255 269 270 287 246 207 221 212 217 219 222 213 235 214 316 161 258 203 212 231 264 282 286 299 282 64 116 129 156 162 140 144 137 133
282 257 177 178 196 220 226 237 256 262 261 211 267 286 303 300 281 225 227 220 212 220 221 227 248 209 178 250 192 221 232 242 255 272 273 291 300 168 164 161 180 134 146 155 142
282 275 187 194 226 227 229 245 252 252 248 241 238 261 279 286 298 293 253 233 241 217 241 225 220 244 242 249 190 205 207 228 244 257 245 261 255 110 127 153 159 137 143 122 123
287 253 179 209 238 264 254 241 233 243 270 243 254 252 249 246 266 276 274 280 8 126 54 326 272 264 241 237 206 237 208 215 245 263 276 274 278 154 169 179 125 130 136 145 146
246 269 5 234 212 235 253 266 263 228 216 236 255 261 250 253 255 250 250 264 155 79 283 237 251 275 279 265 229 271 256 207 218 245 254 267 288 58 114 141 138 151 150 157 154
333 343 332 301 297 298 254 246 267 276 228 206 239 242 234 248 256 257 255 232 264 171 219 243 253 262 277 280 274 279 227 274 276 268 288 303 293 333 47 317 153 166 169 158 153
350 331 302 293 291 262 259 269 241 260 276 266 227 226 235 256 299 259 271 292 272 208 189 226 236 227 246 252 266 270 271 230 261 271 281 273 312 14 43 65 144 168 181 173 133